Tracking 29892 objects as of 21-Nov-2024
HD Live streaming from Space Station
objects crossing your sky now

STARLINK-4567

Track STARLINK-4567 now!
10-day predictions
STARLINK-4567 is classified as:


NORAD ID: 53970
Int'l Code: 2022-125G
Perigee: 545.7 km
Apogee: 548.1 km
Inclination: 53.2 °
Period: 95.4 minutes
Semi major axis: 6917 km
RCS: Unknown
Launch date: October 5, 2022
Source: United States (US)
Launch site: AIR FORCE WESTERN TEST RANGE (AFWTR)
Your satellite tracking list
Your tracking list is empty




NASA's NSSDC Master Catalog

Two Line Element Set (TLE):
1 53970U 22125G   24324.89300030  .00004868  00000-0  32386-3 0  9995
2 53970  53.2147 190.6070 0001728  82.4800 277.6388 15.08829390117725
Source of the keplerian elements: AFSPC